EW9688 Weather Reports


Display with metric or nautical units.
time (UTC)temp
F
wind
direction
speed
MPH
gust
MPH
rain 1hr
in
rain 24hr
in
rain mn
in
humidity
%
barometer
mb
20260904041821 76 335 3.0 5.0 0.00 0.00 0.00 32 1018.6
20260904040821 75 13 8.0 9.0 0.00 0.00 0.00 32 1018.6
20260904035821 75 15 4.0 6.0 0.00 0.00 0.00 33 1018.6
20260904034822 75 323 5.0 7.0 0.00 0.00 0.00 33 1018.6
20260904033822 75 312 2.0 4.0 0.00 0.00 0.00 34 1018.6
20260904032822 74 307 5.0 7.0 0.00 0.00 0.00 35 1018.7
20260904031823 74 306 4.0 5.0 0.00 0.00 0.00 35 1018.7
20260904030822 73 302 2.0 4.0 0.00 0.00 0.00 36 1018.7
20260904025842 74 320 2.0 5.0 0.00 0.00 0.00 36 1018.5
20260904024816 75 356 5.0 7.0 0.00 0.00 0.00 35 1018.5
20260904023836 75 353 4.0 7.0 0.00 0.00 0.00 35 1018.5
20260904022817 75 309 3.0 4.0 0.00 0.00 0.00 36 1018.4
20260904021817 76 15 2.0 5.0 0.00 0.00 0.00 34 1018.3
20260904020823 76 350 4.0 7.0 0.00 0.00 0.00 33 1018.3
20260904015820 77 349 4.0 11.0 0.00 0.00 0.00 31 1018.1
20260904014823 77 358 4.0 6.0 0.00 0.00 0.00 30 1018.1
20260904013817 77 3 4.0 5.0 0.00 0.00 0.00 30 1018.0
20260904012819 77 354 3.0 4.0 0.00 0.01 0.00 30 1018.1
20260904011824 77 349 3.0 4.0 0.00 0.01 0.00 29 1018.1
20260904010824 78 349 3.0 3.0 0.00 0.01 0.00 29 1018.1
20260904005824 79 7 2.0 3.0 0.00 0.01 0.00 28 1018.0
20260904004824 79 0 2.0 3.0 0.00 0.01 0.00 27 1018.0
20260904003825 80 24 1.0 3.0 0.00 0.01 0.00 27 1018.0
20260904002845 81 11 2.0 2.0 0.00 0.01 0.00 27 1017.9
20260904001825 83 24 2.0 3.0 0.00 0.01 0.00 26 1017.9
20260904000825 84 44 1.0 2.0 0.00 0.01 0.00 25 1017.8
20260903235835 86 43 1.0 2.0 0.00 0.01 0.00 25 1017.7
20260903234835 86 47 2.0 3.0 0.00 0.01 0.00 24 1017.7
20260903233829 86 41 2.0 4.0 0.00 0.01 0.00 24 1017.6
20260903232835 86 30 2.0 4.0 0.00 0.01 0.00 24 1017.6
20260903231826 87 50 2.0 3.0 0.00 0.01 0.00 24 1017.6
20260903230826 86 181 2.0 2.0 0.00 0.01 0.00 24 1017.6
20260903225821 86 15 3.0 4.0 0.00 0.01 0.00 25 1017.7
20260903224821 86 31 5.0 6.0 0.00 0.01 0.00 25 1017.7
20260903223820 86 27 2.0 3.0 0.00 0.01 0.00 24 1017.8
20260903222821 85 18 4.0 5.0 0.00 0.01 0.00 24 1017.9
20260903221821 86 28 3.0 5.0 0.00 0.01 0.00 25 1017.9
20260903220821 85 25 2.0 3.0 0.00 0.01 0.00 24 1018.1
20260903215821 85 27 6.0 7.0 0.00 0.01 0.00 26 1018.1
20260903214821 86 70 5.0 7.0 0.00 0.01 0.00 25 1018.1
20260903213818 85 48 4.0 8.0 0.00 0.01 0.00 25 1018.2
20260903212822 85 174 4.0 6.0 0.00 0.01 0.00 25 1018.2
20260903211842 85 34 7.0 8.0 0.00 0.01 0.00 26 1018.3
20260903210822 84 23 4.0 5.0 0.00 0.01 0.00 27 1018.5
20260903205823 84 14 2.0 2.0 0.00 0.01 0.00 27 1018.5
20260903204848 84 64 3.0 4.0 0.00 0.01 0.00 27 1018.6
20260903203823 84 77 3.0 4.0 0.00 0.01 0.00 26 1018.7
20260903202817 84 210 1.0 2.0 0.00 0.01 0.00 27 1018.8
20260903201817 83 23 2.0 4.0 0.00 0.01 0.00 27 1018.9
20260903200837 83 21 6.0 8.0 0.00 0.01 0.00 26 1018.9
20260903195822 83 41 6.0 7.0 0.00 0.01 0.00 26 1019.0
20260903194823 82 22 5.0 8.0 0.00 0.01 0.00 27 1019.1
20260903193823 83 16 6.0 7.0 0.00 0.01 0.00 27 1019.1
20260903192823 83 163 4.0 6.0 0.00 0.01 0.00 28 1019.3
20260903191817 82 26 2.0 4.0 0.00 0.01 0.00 28 1019.3
20260903190818 82 36 5.0 10.0 0.00 0.01 0.00 27 1019.4
20260903185838 82 54 7.0 11.0 0.00 0.01 0.00 27 1019.6
20260903184818 81 108 5.0 8.0 0.00 0.01 0.00 29 1019.6
20260903183818 81 58 6.0 9.0 0.00 0.01 0.00 28 1019.8
20260903182818 81 67 4.0 7.0 0.00 0.01 0.00 28 1020.0
20260903181818 81 124 5.0 9.0 0.00 0.01 0.00 28 1020.1
20260903180818 80 43 4.0 7.0 0.00 0.01 0.00 30 1020.1
20260903175819 80 172 4.0 7.0 0.00 0.01 0.00 29 1020.2
20260903174819 80 124 4.0 7.0 0.00 0.01 0.00 29 1020.3
20260903173859 79 21 5.0 7.0 0.00 0.01 0.00 30 1020.4
20260903172819 79 42 4.0 6.0 0.00 0.01 0.00 30 1020.4
20260903171820 79 97 8.0 9.0 0.00 0.01 0.00 31 1020.5
20260903170819 78 56 4.0 6.0 0.00 0.01 0.00 31 1020.5
20260903165840 78 64 6.0 9.0 0.00 0.01 0.00 31 1020.4
20260903164820 78 141 5.0 7.0 0.00 0.01 0.00 31 1020.5
20260903163820 78 140 5.0 8.0 0.00 0.01 0.00 31 1020.4
20260903162820 78 111 4.0 8.0 0.00 0.01 0.00 33 1020.4
20260903161826 77 119 3.0 7.0 0.00 0.01 0.00 32 1020.5
20260903160821 77 132 5.0 7.0 0.00 0.01 0.00 33 1020.4
20260903155822 77 100 4.0 6.0 0.00 0.01 0.00 33 1020.5
20260903154821 76 95 4.0 6.0 0.00 0.01 0.00 34 1020.5
20260903153827 76 112 2.0 4.0 0.00 0.01 0.00 33 1020.5
20260903152822 76 144 4.0 6.0 0.00 0.01 0.00 35 1020.5
20260903151819 76 175 2.0 4.0 0.00 0.01 0.00 35 1020.5
20260903150818 75 34 2.0 4.0 0.00 0.01 0.00 35 1020.6
20260903145839 75 119 2.0 3.0 0.00 0.01 0.00 35 1020.7
20260903144819 75 135 1.0 2.0 0.00 0.01 0.00 36 1020.7
20260903143816 75 18 4.0 6.0 0.00 0.01 0.00 36 1020.8
20260903142819 75 8 4.0 4.0 0.00 0.01 0.00 35 1020.9
20260903141819 74 300 1.0 1.0 0.00 0.01 0.00 40 1021.0
20260903140819 71 81 1.0 1.0 0.00 0.01 0.00 38 1020.9
20260903135823 69 9 4.0 5.0 0.00 0.01 0.00 41 1020.9
20260903134840 66 246 1.0 1.0 0.00 0.01 0.00 44 1020.9
20260903133820 65 268 0.0 1.0 0.00 0.01 0.00 46 1020.9
20260903132820 63 300 2.0 2.0 0.00 0.01 0.00 47 1020.7
20260903131820 62 295 1.0 1.0 0.00 0.01 0.00 48 1020.7
20260903130821 61 304 2.0 2.0 0.00 0.01 0.00 51 1020.7
20260903125833 61 343 1.0 1.0 0.00 0.01 0.00 49 1020.6
20260903124829 61 286 0.0 1.0 0.00 0.01 0.00 49 1020.4
20260903123842 61 312 2.0 2.0 0.00 0.01 0.00 48 1020.3
20260903122821 60 293 1.0 2.0 0.00 0.01 0.00 50 1020.2
20260903121822 60 305 2.0 3.0 0.00 0.01 0.00 50 1020.1
20260903120821 61 271 1.0 1.0 0.00 0.01 0.00 50 1020.1
20260903115830 60 306 1.0 2.0 0.00 0.01 0.00 51 1020.1
20260903114830 60 301 2.0 3.0 0.00 0.01 0.00 51 1020.0
20260903113822 60 243 0.0 0.0 0.00 0.01 0.00 51 1020.0
20260903112823 60 289 3.0 3.0 0.00 0.01 0.00 52 1020.0
20260903111830 61 295 1.0 2.0 0.00 0.01 0.00 50 1019.9
20260903110831 61 287 1.0 2.0 0.00 0.01 0.00 51 1019.9
20260903105831 61 290 2.0 2.0 0.00 0.01 0.00 51 1019.9
20260903104831 63 303 1.0 2.0 0.00 0.01 0.00 48 1019.9
20260903103831 63 271 1.0 1.0 0.00 0.01 0.00 47 1019.9
20260903102832 63 237 1.0 1.0 0.00 0.01 0.00 46 1020.0
20260903101823 63 104 0.0 1.0 0.00 0.01 0.00 48 1019.9
20260903100824 63 0.0 0.0 0.00 0.01 0.00 48 1019.9
20260903095824 63 243 1.0 1.0 0.00 0.01 0.00 47 1020.0
20260903094824 62 283 1.0 1.0 0.00 0.01 0.00 48 1020.1
20260903093824 63 290 1.0 1.0 0.00 0.01 0.00 47 1020.1
20260903092844 64 0.0 0.0 0.00 0.01 0.00 47 1020.1
20260903091844 64 282 1.0 2.0 0.00 0.01 0.00 46 1020.1
20260903090825 64 273 1.0 1.0 0.00 0.01 0.00 47 1020.2
20260903085834 64 269 1.0 2.0 0.00 0.01 0.00 44 1020.1
20260903084834 63 222 1.0 1.0 0.00 0.01 0.00 47 1020.1
20260903083834 62 259 1.0 1.0 0.00 0.01 0.00 51 1020.1
20260903082834 62 290 1.0 2.0 0.00 0.01 0.00 52 1020.0
20260903081826 62 203 2.0 2.0 0.00 0.01 0.00 55 1020.0
20260903080846 62 242 1.0 2.0 0.00 0.01 0.00 56 1020.1
20260903075826 62 257 1.0 1.0 0.00 0.01 0.00 60 1020.1
20260903074847 61 223 1.0 1.0 0.00 0.01 0.00 62 1020.2
20260903073826 62 271 1.0 1.0 0.00 0.01 0.00 64 1020.1
20260903072827 63 200 1.0 1.0 0.00 0.01 0.00 60 1020.2
20260903071834 63 260 1.0 1.0 0.00 0.01 0.00 60 1020.3
20260903070835 64 205 1.0 2.0 0.00 0.01 0.00 58 1020.3
20260903065907 65 219 0.0 0.0 0.00 0.01 0.00 58 1020.4
20260903064827 65 330 0.0 1.0 0.00 0.01 0.00 58 1020.5
20260903063827 65 327 1.0 2.0 0.00 0.01 0.00 57 1020.6
20260903062828 65 274 1.0 1.0 0.00 0.01 0.00 60 1020.6
20260903061855 66 0.0 0.0 0.00 0.01 0.00 60 1020.7
20260903060828 66 302 0.0 1.0 0.00 0.01 0.00 58 1020.6
20260903055836 66 116 0.0 1.0 0.00 0.01 0.01 59 1020.5
20260903054902 66 152 2.0 3.0 0.00 0.01 0.01 58 1020.7
20260903053837 66 179 1.0 1.0 0.00 0.01 0.01 58 1020.5
20260903052857 66 177 2.0 2.0 0.00 0.01 0.01 54 1020.4
20260903051829 66 0.0 0.0 0.00 0.01 0.01 53 1020.6
20260903050829 66 174 1.0 1.0 0.00 0.01 0.01 53 1020.7
20260903045829 67 354 1.0 2.0 0.00 0.01 0.01 56 1020.5
20260903044829 67 269 2.0 2.0 0.00 0.01 0.01 54 1020.7
20260903043829 67 329 2.0 3.0 0.00 0.01 0.01 54 1020.9
20260903042830 66 205 3.0 3.0 0.00 0.01 0.01 57 1021.0